RUK9605 EGAA-EGNX

Flight info

Callsign RUK9605
Flight time 0h 49m
Altitude 25000
Route LISBO L603 PEPOD Q38 MAKUX
Aircraft B738/M-SDE2E3FGHIRWXY/LB1

Departure

Time 2026-04-28 18:22
Airport Belfast International Airport (EGAA)

Arrival

Time 2026-04-28 19:11
Airport East Midlands Airport (EGNX)
Time Latitude Longitude Altitude Speed Heading
2026-04-28 17:48 54.66074 -6.21322 271 ft 0 kts 245°
2026-04-28 18:12 54.66081 -6.21296 271 ft 2 kts 245°
2026-04-28 18:12 54.66092 -6.21266 272 ft 4 kts 208°
2026-04-28 18:12 54.66113 -6.21256 271 ft 4 kts 172°
2026-04-28 18:12 54.66127 -6.21262 271 ft 0 kts 155°
2026-04-28 18:16 54.66108 -6.21247 271 ft 7 kts 155°
2026-04-28 18:16 54.66049 -6.21204 271 ft 7 kts 174°
2026-04-28 18:16 54.66017 -6.21266 271 ft 7 kts 243°
2026-04-28 18:17 54.65995 -6.21342 271 ft 7 kts 244°
2026-04-28 18:17 54.65971 -6.21435 271 ft 11 kts 246°
2026-04-28 18:17 54.65938 -6.21560 271 ft 12 kts 245°
2026-04-28 18:17 54.65904 -6.21686 274 ft 12 kts 245°
2026-04-28 18:18 54.65862 -6.21842 273 ft 17 kts 244°
2026-04-28 18:18 54.65805 -6.22051 274 ft 21 kts 244°
2026-04-28 18:18 54.65767 -6.22295 271 ft 21 kts 263°
2026-04-28 18:18 54.65755 -6.22460 271 ft 21 kts 263°
2026-04-28 18:19 54.65737 -6.22779 275 ft 20 kts 259°
2026-04-28 18:19 54.65675 -6.22985 271 ft 19 kts 232°
2026-04-28 18:19 54.65596 -6.23167 271 ft 19 kts 233°
2026-04-28 18:19 54.65514 -6.23329 271 ft 18 kts 209°
2026-04-28 18:20 54.65399 -6.23406 271 ft 17 kts 193°
2026-04-28 18:20 54.65314 -6.23358 271 ft 10 kts 154°
2026-04-28 18:20 54.65296 -6.23261 271 ft 10 kts 66°
2026-04-28 18:20 54.65300 -6.23246 271 ft 0 kts 65°
2026-04-28 18:21 54.65301 -6.23240 271 ft 5 kts 65°
2026-04-28 18:21 54.65390 -6.22911 271 ft 65 kts 65°
2026-04-28 18:21 54.65674 -6.21859 271 ft 126 kts 66°
2026-04-28 18:21 54.66051 -6.20309 655 ft 139 kts 69°
2026-04-28 18:22 54.66432 -6.18680 1109 ft 159 kts 68°
2026-04-28 18:22 54.66854 -6.16920 1813 ft 156 kts 66°
2026-04-28 18:22 54.67304 -6.15237 2533 ft 153 kts 68°
2026-04-28 18:22 54.67366 -6.13456 3180 ft 153 kts 110°
2026-04-28 18:23 54.66620 -6.12067 3569 ft 177 kts 155°
2026-04-28 18:23 54.65317 -6.11659 3827 ft 204 kts 170°
2026-04-28 18:23 54.63847 -6.11348 4009 ft 225 kts 170°
2026-04-28 18:23 54.62213 -6.11012 4181 ft 248 kts 171°
2026-04-28 18:24 54.60432 -6.10647 4593 ft 263 kts 171°
2026-04-28 18:24 54.59220 -6.10399 5034 ft 267 kts 170°
2026-04-28 18:24 54.56733 -6.09884 6009 ft 270 kts 169°
2026-04-28 18:24 54.54856 -6.09493 6752 ft 273 kts 169°
2026-04-28 18:25 54.52991 -6.08885 7424 ft 273 kts 153°
2026-04-28 18:25 54.51482 -6.07002 8141 ft 268 kts 129°
2026-04-28 18:25 54.50260 -6.04572 8886 ft 270 kts 126°
2026-04-28 18:26 54.47867 -5.99548 10387 ft 277 kts 126°
2026-04-28 18:26 54.46624 -5.96936 10862 ft 291 kts 126°
2026-04-28 18:26 54.45285 -5.94131 11045 ft 315 kts 126°
2026-04-28 18:26 54.43854 -5.91154 11470 ft 328 kts 126°
2026-04-28 18:27 54.42378 -5.88108 12141 ft 334 kts 126°
2026-04-28 18:27 54.40882 -5.85034 12908 ft 336 kts 126°
2026-04-28 18:27 54.39372 -5.81938 13680 ft 340 kts 125°
2026-04-28 18:27 54.37861 -5.78842 14414 ft 344 kts 125°
2026-04-28 18:28 54.36291 -5.75630 15133 ft 348 kts 125°
2026-04-28 18:28 54.34750 -5.72480 15878 ft 350 kts 125°
2026-04-28 18:28 54.33177 -5.69269 16615 ft 354 kts 125°
2026-04-28 18:28 54.31582 -5.66014 17324 ft 358 kts 124°
2026-04-28 18:29 54.29974 -5.62740 18034 ft 362 kts 124°
2026-04-28 18:29 54.28345 -5.59427 18729 ft 365 kts 124°
2026-04-28 18:29 54.26716 -5.56063 19330 ft 368 kts 122°
2026-04-28 18:29 54.25182 -5.52542 19938 ft 370 kts 120°
2026-04-28 18:30 54.23685 -5.48938 20544 ft 373 kts 120°
2026-04-28 18:30 54.22689 -5.46532 20931 ft 375 kts 120°
2026-04-28 18:30 54.20646 -5.41668 21819 ft 377 kts 120°
2026-04-28 18:30 54.19111 -5.38058 22633 ft 374 kts 120°
2026-04-28 18:31 54.17590 -5.34483 23434 ft 371 kts 120°
2026-04-28 18:31 54.16078 -5.30916 24150 ft 371 kts 120°
2026-04-28 18:31 54.14568 -5.27351 24756 ft 370 kts 120°
2026-04-28 18:31 54.13063 -5.23805 25415 ft 368 kts 120°
2026-04-28 18:32 54.11583 -5.20322 26040 ft 366 kts 120°
2026-04-28 18:32 54.10081 -5.16791 26648 ft 365 kts 120°
2026-04-28 18:32 54.08598 -5.13307 27244 ft 364 kts 120°
2026-04-28 18:32 54.07099 -5.09792 27424 ft 367 kts 120°
2026-04-28 18:33 54.05602 -5.06287 27441 ft 364 kts 120°
2026-04-28 18:33 54.04112 -5.02806 27441 ft 364 kts 120°
2026-04-28 18:33 54.02618 -4.99318 27451 ft 364 kts 120°
2026-04-28 18:33 54.01145 -4.95879 27451 ft 365 kts 120°
2026-04-28 18:34 53.99649 -4.92394 27448 ft 366 kts 120°
2026-04-28 18:34 53.98145 -4.88902 27449 ft 366 kts 120°
2026-04-28 18:34 53.96642 -4.85420 27389 ft 364 kts 120°
2026-04-28 18:34 53.95146 -4.81977 27239 ft 360 kts 120°
2026-04-28 18:35 53.93661 -4.78569 27118 ft 356 kts 120°
2026-04-28 18:35 53.92189 -4.75188 27006 ft 356 kts 120°
2026-04-28 18:35 53.90716 -4.71804 26913 ft 357 kts 120°
2026-04-28 18:35 53.89238 -4.68413 26811 ft 358 kts 119°
2026-04-28 18:36 53.87754 -4.65014 26674 ft 358 kts 119°
2026-04-28 18:36 53.86272 -4.61623 26548 ft 357 kts 120°
2026-04-28 18:36 53.84813 -4.58290 26423 ft 356 kts 120°
2026-04-28 18:36 53.83336 -4.54922 26304 ft 355 kts 120°
2026-04-28 18:37 53.81869 -4.51584 26188 ft 353 kts 120°
2026-04-28 18:37 53.80404 -4.48252 26071 ft 351 kts 120°
2026-04-28 18:37 53.78946 -4.44939 25950 ft 350 kts 120°
2026-04-28 18:37 53.77495 -4.41644 25845 ft 349 kts 120°
2026-04-28 18:38 53.76047 -4.38358 25729 ft 347 kts 120°
2026-04-28 18:38 53.74603 -4.35086 25624 ft 346 kts 120°
2026-04-28 18:38 53.73163 -4.31826 25507 ft 346 kts 120°
2026-04-28 18:38 53.71725 -4.28574 25394 ft 345 kts 120°
2026-04-28 18:39 53.70306 -4.25369 25285 ft 345 kts 120°
2026-04-28 18:39 53.68869 -4.22125 25174 ft 344 kts 120°
2026-04-28 18:39 53.67435 -4.18894 25062 ft 344 kts 120°
2026-04-28 18:39 53.65995 -4.15653 24982 ft 344 kts 119°
2026-04-28 18:40 53.64558 -4.12425 24849 ft 344 kts 119°
2026-04-28 18:40 53.63120 -4.09200 24723 ft 343 kts 119°
2026-04-28 18:40 53.61700 -4.06023 24613 ft 342 kts 119°
2026-04-28 18:40 53.60251 -4.02787 24497 ft 341 kts 119°
2026-04-28 18:41 53.58843 -3.99643 24384 ft 340 kts 119°
2026-04-28 18:41 53.57420 -3.96470 24276 ft 339 kts 119°
2026-04-28 18:41 53.56002 -3.93311 24166 ft 338 kts 119°
2026-04-28 18:41 53.54587 -3.90161 24054 ft 337 kts 119°
2026-04-28 18:42 53.53177 -3.87025 23938 ft 336 kts 119°
2026-04-28 18:42 53.51767 -3.83894 23812 ft 335 kts 120°
2026-04-28 18:42 53.50360 -3.80772 23691 ft 335 kts 120°
2026-04-28 18:42 53.48954 -3.77658 23584 ft 334 kts 120°
2026-04-28 18:43 53.47553 -3.74557 23471 ft 333 kts 120°
2026-04-28 18:43 53.46155 -3.71466 23362 ft 332 kts 120°
2026-04-28 18:43 53.44756 -3.68375 23251 ft 332 kts 120°
2026-04-28 18:43 53.43358 -3.65292 23144 ft 332 kts 120°
2026-04-28 18:44 53.41960 -3.62216 23038 ft 331 kts 120°
2026-04-28 18:44 53.39015 -3.56233 22827 ft 334 kts 124°
2026-04-28 18:44 53.37468 -3.53322 22714 ft 334 kts 124°
2026-04-28 18:45 53.35918 -3.50415 22602 ft 334 kts 124°
2026-04-28 18:45 53.34374 -3.47512 22483 ft 334 kts 124°
2026-04-28 18:45 53.32836 -3.44607 22379 ft 333 kts 124°
2026-04-28 18:45 53.31301 -3.41700 22269 ft 333 kts 124°
2026-04-28 18:46 53.29771 -3.38800 22154 ft 332 kts 124°
2026-04-28 18:46 53.28264 -3.35944 22052 ft 331 kts 124°
2026-04-28 18:46 53.26741 -3.33059 21955 ft 331 kts 124°
2026-04-28 18:46 53.25222 -3.30181 21830 ft 330 kts 124°
2026-04-28 18:47 53.23704 -3.27309 21722 ft 329 kts 124°
2026-04-28 18:47 53.22185 -3.24440 21615 ft 329 kts 124°
2026-04-28 18:47 53.20673 -3.21590 21529 ft 328 kts 124°
2026-04-28 18:47 53.19180 -3.18727 21419 ft 325 kts 120°
2026-04-28 18:48 53.17908 -3.15659 21309 ft 320 kts 115°
2026-04-28 18:48 53.16749 -3.12503 21206 ft 318 kts 114°
2026-04-28 18:48 53.15607 -3.09351 21095 ft 318 kts 114°
2026-04-28 18:48 53.14455 -3.06211 20998 ft 317 kts 114°
2026-04-28 18:49 53.13293 -3.03091 20909 ft 317 kts 115°
2026-04-28 18:49 53.12895 -3.02031 20864 ft 317 kts 115°
2026-04-28 18:49 53.10945 -2.96879 20686 ft 316 kts 115°
2026-04-28 18:49 53.09764 -2.93780 20578 ft 316 kts 115°
2026-04-28 18:50 53.08588 -2.90703 20458 ft 315 kts 115°
2026-04-28 18:50 53.07639 -2.87527 20316 ft 306 kts 99°
2026-04-28 18:50 53.07258 -2.84084 20131 ft 303 kts 93°
2026-04-28 18:50 53.06987 -2.80608 19903 ft 303 kts 92°
2026-04-28 18:51 53.06731 -2.77152 19677 ft 299 kts 92°
2026-04-28 18:51 53.06475 -2.73735 19461 ft 296 kts 92°
2026-04-28 18:51 53.06216 -2.70359 19249 ft 293 kts 92°
2026-04-28 18:51 53.05955 -2.67018 19042 ft 290 kts 92°
2026-04-28 18:52 53.05692 -2.63704 18833 ft 288 kts 93°
2026-04-28 18:52 53.05428 -2.60419 18621 ft 285 kts 93°
2026-04-28 18:52 53.05165 -2.57155 18392 ft 285 kts 93°
2026-04-28 18:52 53.04899 -2.53871 18194 ft 289 kts 93°
2026-04-28 18:53 53.04629 -2.50552 17972 ft 291 kts 94°
2026-04-28 18:53 53.04355 -2.47216 17746 ft 290 kts 94°
2026-04-28 18:53 53.04079 -2.43872 17272 ft 296 kts 94°
2026-04-28 18:53 53.03800 -2.40483 16997 ft 295 kts 94°
2026-04-28 18:54 53.03521 -2.37139 16759 ft 290 kts 94°
2026-04-28 18:54 53.03245 -2.33842 16537 ft 285 kts 94°
2026-04-28 18:54 53.02983 -2.30646 16335 ft 280 kts 92°
2026-04-28 18:54 53.02964 -2.27443 16143 ft 276 kts 84°
2026-04-28 18:55 53.03108 -2.24261 15947 ft 274 kts 83°
2026-04-28 18:55 53.03215 -2.22176 15814 ft 273 kts 83°
2026-04-28 18:55 53.03424 -2.17962 15556 ft 275 kts 83°
2026-04-28 18:55 53.03570 -2.14770 15361 ft 278 kts 83°
2026-04-28 18:56 53.03708 -2.11561 15153 ft 278 kts 84°
2026-04-28 18:56 53.03840 -2.08363 14966 ft 276 kts 84°
2026-04-28 18:56 53.03967 -2.05185 14758 ft 275 kts 84°
2026-04-28 18:56 53.04091 -2.02014 14557 ft 275 kts 84°
2026-04-28 18:57 53.04211 -1.98887 14367 ft 275 kts 85°
2026-04-28 18:57 53.04332 -1.95725 14155 ft 274 kts 85°
2026-04-28 18:57 53.04452 -1.92571 13928 ft 273 kts 85°
2026-04-28 18:57 53.04570 -1.89430 13735 ft 272 kts 85°
2026-04-28 18:58 53.04688 -1.86291 13535 ft 272 kts 85°
2026-04-28 18:58 53.04805 -1.83160 13328 ft 272 kts 85°
2026-04-28 18:58 53.04920 -1.80049 13136 ft 271 kts 85°
2026-04-28 18:58 53.05037 -1.76892 12929 ft 272 kts 85°
2026-04-28 18:59 53.05152 -1.73758 12737 ft 271 kts 85°
2026-04-28 18:59 53.05265 -1.70626 12537 ft 271 kts 85°
2026-04-28 18:59 53.05378 -1.67497 12338 ft 271 kts 85°
2026-04-28 18:59 53.05431 -1.64363 12150 ft 271 kts 88°
2026-04-28 19:00 53.05426 -1.61224 11946 ft 271 kts 89°
2026-04-28 19:00 53.05412 -1.58088 11758 ft 271 kts 89°
2026-04-28 19:00 53.05400 -1.54987 11552 ft 271 kts 89°
2026-04-28 19:00 53.05391 -1.51849 11370 ft 270 kts 89°
2026-04-28 19:01 53.05383 -1.48723 11179 ft 271 kts 89°
2026-04-28 19:01 53.05377 -1.45609 10970 ft 267 kts 89°
2026-04-28 19:01 53.05370 -1.42584 10769 ft 257 kts 89°
2026-04-28 19:01 53.05363 -1.39669 10568 ft 247 kts 89°
2026-04-28 19:02 53.05356 -1.36869 10399 ft 237 kts 89°
2026-04-28 19:02 53.05344 -1.34176 10220 ft 228 kts 92°
2026-04-28 19:02 53.04924 -1.31678 10042 ft 229 kts 117°
2026-04-28 19:02 53.04278 -1.30282 9947 ft 233 kts 131°
2026-04-28 19:03 53.02903 -1.28774 9784 ft 244 kts 153°
2026-04-28 19:03 53.01206 -1.28292 9594 ft 257 kts 179°
2026-04-28 19:03 52.99467 -1.29177 9398 ft 268 kts 208°
2026-04-28 19:03 52.98163 -1.31424 9199 ft 276 kts 240°
2026-04-28 19:04 52.97694 -1.34492 8987 ft 278 kts 274°
2026-04-28 19:04 52.98151 -1.37591 8552 ft 281 kts 295°
2026-04-28 19:04 52.98924 -1.40586 8038 ft 283 kts 296°
2026-04-28 19:04 52.99695 -1.43607 7552 ft 285 kts 295°
2026-04-28 19:05 53.00210 -1.46784 7016 ft 290 kts 270°
2026-04-28 19:05 52.99695 -1.49971 6526 ft 288 kts 237°
2026-04-28 19:05 52.98327 -1.52290 6105 ft 277 kts 204°
2026-04-28 19:05 52.96559 -1.53200 5878 ft 260 kts 185°
2026-04-28 19:06 52.94800 -1.53701 5612 ft 254 kts 184°
2026-04-28 19:06 52.93075 -1.54178 5347 ft 248 kts 184°
2026-04-28 19:06 52.91392 -1.54652 5081 ft 243 kts 184°
2026-04-28 19:06 52.89758 -1.55121 4817 ft 241 kts 185°
2026-04-28 19:07 52.88117 -1.55597 4465 ft 239 kts 185°
2026-04-28 19:07 52.86474 -1.56076 4053 ft 241 kts 184°
2026-04-28 19:07 52.84812 -1.56489 3586 ft 240 kts 174°
2026-04-28 19:07 52.83296 -1.55744 3116 ft 222 kts 134°
2026-04-28 19:08 52.82532 -1.53717 2704 ft 205 kts 94°
2026-04-28 19:08 52.82685 -1.51453 2415 ft 194 kts 77°
2026-04-28 19:08 52.82820 -1.49268 2114 ft 187 kts 84°
2026-04-28 19:08 52.82851 -1.47188 1848 ft 174 kts 84°
2026-04-28 19:09 52.82880 -1.45269 1615 ft 161 kts 83°
2026-04-28 19:09 52.82910 -1.43487 1439 ft 146 kts 83°
2026-04-28 19:09 52.82938 -1.41887 1205 ft 133 kts 84°
2026-04-28 19:09 52.82964 -1.40395 1012 ft 130 kts 83°
2026-04-28 19:10 52.82992 -1.38888 830 ft 132 kts 85°
2026-04-28 19:10 52.83010 -1.37372 684 ft 130 kts 84°
2026-04-28 19:10 52.83039 -1.35874 484 ft 129 kts 80°
2026-04-28 19:10 52.83069 -1.34395 327 ft 127 kts 83°
2026-04-28 19:11 52.83098 -1.33096 305 ft 95 kts 89°
2026-04-28 19:11 52.83111 -1.32252 304 ft 52 kts 87°
2026-04-28 19:11 52.83120 -1.31813 310 ft 33 kts 87°
2026-04-28 19:11 52.83124 -1.31506 307 ft 14 kts 88°
2026-04-28 19:12 52.83116 -1.31349 307 ft 14 kts 123°
2026-04-28 19:12 52.83025 -1.31316 302 ft 15 kts 179°
2026-04-28 19:12 52.82956 -1.31421 301 ft 15 kts 266°
2026-04-28 19:12 52.82953 -1.31589 300 ft 14 kts 268°
2026-04-28 19:13 52.82950 -1.31760 300 ft 15 kts 268°
2026-04-28 19:13 52.82947 -1.31927 303 ft 14 kts 269°
2026-04-28 19:13 52.82944 -1.32084 300 ft 13 kts 268°
2026-04-28 19:13 52.82941 -1.32232 300 ft 13 kts 268°
2026-04-28 19:14 52.82939 -1.32374 300 ft 12 kts 268°
2026-04-28 19:14 52.82936 -1.32532 300 ft 16 kts 268°
2026-04-28 19:14 52.82932 -1.32741 300 ft 19 kts 268°
2026-04-28 19:14 52.82852 -1.32858 300 ft 13 kts 180°
2026-04-28 19:15 52.82798 -1.32913 300 ft 7 kts 246°
2026-04-28 19:15 52.82777 -1.32936 301 ft 3 kts 181°
2026-04-28 19:15 52.82748 -1.32935 302 ft 5 kts 178°
2026-04-28 19:15 52.82735 -1.32935 302 ft 0 kts 178°
2026-04-28 19:16 52.82729 -1.32934 302 ft 0 kts 178°